Retour au catalogue

STARLINK-1566

ActifCommunicationsVLEO
NORAD 46079·PAYLOAD·🇺🇸 United States

Lancé Aug 7, 2020 depuis Cape Canaveral Space Force Station

Loading…

Prochains Passages (prochaines 24 heures)

TLE

FraisSource: CelesTrak SupGP

Époque: Sep 15, 2026, 01:49 UTC

1 46079C 20055BE  26258.07618056  .00032706  00000+0  10513-2 0  2581
2 46079  53.1587 299.7775 0001327  88.9572  70.1793 15.31699352    17

Suivez STARLINK-1566 en temps réel avec AllMySat

Download on the App Store